When you browse on this site, cookies collect data to enhance your experience and personalize the content and advertising you see.
Visit our Privacy Policy to learn more. By continuing to use the site, you agree to this use of cookies and data.
  • In Lithuania
  • List of Countries
  • For 7 days
  • Water Temperature
  • Weather Map
  • Weather Widgets
  • user-avatar
    Login

    Hourly Weather Abovyan

    Today, 3 June, Wednesday

    Time Temperature Precipitation Wind Pressure Humidity
    00:00 +18°C° 0.2 mm 2 mps 667 mmHg 64%
    01:00 +17°C° 0 mm 2 mps 667 mmHg 65%
    02:00 +16°C° 0 mm 1 mps 667 mmHg 66%
    03:00 +16°C° 0 mm 1 mps 667 mmHg 66%
    04:00 +18°C° 0 mm 1 mps 667 mmHg 63%
    05:00 +19°C° 0 mm 1 mps 667 mmHg 61%
    06:00 +19°C° 0 mm 1 mps 668 mmHg 58%
    07:00 +21°C° 0 mm 1 mps 668 mmHg 52%
    08:00 +23°C° 0 mm 2 mps 668 mmHg 45%
    09:00 +25°C° 0 mm 2 mps 669 mmHg 39%
    10:00 +26°C° 0 mm 2 mps 669 mmHg 36%
    11:00 +27°C° 0 mm 2 mps 669 mmHg 33%
    12:00 +28°C° 0 mm 2 mps 669 mmHg 31%
    13:00 +27°C° 0.4 mm 2 mps 669 mmHg 37%
    14:00 +26°C° 0.4 mm 2 mps 668 mmHg 44%
    15:00 +25°C° 0.4 mm 3 mps 668 mmHg 50%
    16:00 +24°C° 0.2 mm 3 mps 668 mmHg 51%
    17:00 +24°C° 0.2 mm 3 mps 668 mmHg 52%
    18:00 +24°C° 0.2 mm 3 mps 668 mmHg 53%
    19:00 +21°C° 0.1 mm 3 mps 668 mmHg 56%
    20:00 +19°C° 0.1 mm 2 mps 668 mmHg 60%
    21:00 +18°C° 0.1 mm 2 mps 668 mmHg 64%
    22:00 +17°C° 0.1 mm 2 mps 668 mmHg 64%
    23:00 +18°C° 0.1 mm 1 mps 668 mmHg 65%

    Tomorrow, 4 June, Thursday

    Time Temperature Precipitation Wind Pressure Humidity
    00:00 +16°C° 0.1 mm 1 mps 669 mmHg 65%
    01:00 +16°C° 0 mm 1 mps 668 mmHg 65%
    02:00 +15°C° 0 mm 1 mps 668 mmHg 65%
    03:00 +15°C° 0 mm 1 mps 668 mmHg 64%
    04:00 +16°C° 0 mm 1 mps 669 mmHg 60%
    05:00 +18°C° 0 mm 1 mps 669 mmHg 56%
    06:00 +18°C° 0 mm 1 mps 670 mmHg 51%
    07:00 +20°C° 0 mm 1 mps 670 mmHg 45%
    08:00 +22°C° 0 mm 1 mps 670 mmHg 39%
    09:00 +24°C° 0 mm 1 mps 670 mmHg 33%
    10:00 +26°C° 0 mm 1 mps 670 mmHg 31%
    11:00 +27°C° 0 mm 1 mps 670 mmHg 29%
    12:00 +28°C° 0 mm 1 mps 670 mmHg 26%
    13:00 +28°C° 0 mm 2 mps 670 mmHg 27%
    14:00 +29°C° 0 mm 2 mps 670 mmHg 27%
    15:00 +29°C° 0 mm 2 mps 670 mmHg 27%
    16:00 +29°C° 0 mm 2 mps 670 mmHg 30%
    17:00 +28°C° 0 mm 2 mps 670 mmHg 33%
    18:00 +28°C° 0 mm 2 mps 670 mmHg 35%
    19:00 +26°C° 0 mm 3 mps 671 mmHg 35%
    20:00 +24°C° 0 mm 3 mps 671 mmHg 35%
    21:00 +21°C° 0 mm 3 mps 671 mmHg 35%
    22:00 +20°C° 0 mm 3 mps 671 mmHg 36%
    23:00 +19°C° 0 mm 3 mps 671 mmHg 37%

    Day after tomorrow, 5 June, Friday

    Time Temperature Precipitation Wind Pressure Humidity
    00:00 +18°C° 0 mm 2 mps 671 mmHg 37%
    01:00 +17°C° 0 mm 2 mps 671 mmHg 40%
    02:00 +17°C° 0 mm 2 mps 672 mmHg 42%
    03:00 +16°C° 0 mm 2 mps 672 mmHg 44%
    04:00 +17°C° 0 mm 2 mps 672 mmHg 46%
    05:00 +19°C° 0 mm 1 mps 672 mmHg 48%
    06:00 +19°C° 0 mm 1 mps 673 mmHg 50%
    07:00 +21°C° 0 mm 1 mps 673 mmHg 44%
    08:00 +23°C° 0 mm 2 mps 673 mmHg 38%
    09:00 +25°C° 0 mm 2 mps 673 mmHg 33%
    10:00 +26°C° 0 mm 2 mps 673 mmHg 30%
    11:00 +27°C° 0 mm 3 mps 673 mmHg 28%
    12:00 +28°C° 0 mm 3 mps 674 mmHg 26%
    13:00 +28°C° 0 mm 4 mps 673 mmHg 26%
    14:00 +28°C° 0 mm 4 mps 673 mmHg 25%
    15:00 +28°C° 0 mm 5 mps 673 mmHg 25%
    16:00 +28°C° 0 mm 4 mps 673 mmHg 28%
    17:00 +27°C° 0 mm 4 mps 673 mmHg 31%
    18:00 +26°C° 0 mm 3 mps 674 mmHg 34%
    19:00 +24°C° 0 mm 3 mps 674 mmHg 37%
    20:00 +21°C° 0 mm 3 mps 674 mmHg 39%
    21:00 +19°C° 0 mm 3 mps 674 mmHg 42%
    22:00 +18°C° 0 mm 3 mps 674 mmHg 44%
    23:00 +18°C° 0 mm 2 mps 674 mmHg 46%

    6 June, Saturday

    Time Temperature Precipitation Wind Pressure Humidity
    00:00 +17°C° 0 mm 2 mps 674 mmHg 48%
    01:00 +16°C° 0 mm 2 mps 674 mmHg 49%
    02:00 +16°C° 0 mm 2 mps 673 mmHg 50%
    03:00 +15°C° 0 mm 2 mps 673 mmHg 52%
    04:00 +16°C° 0 mm 2 mps 674 mmHg 52%
    05:00 +18°C° 0 mm 1 mps 674 mmHg 53%
    06:00 +19°C° 0 mm 1 mps 674 mmHg 54%
    07:00 +21°C° 0 mm 1 mps 675 mmHg 49%
    08:00 +23°C° 0 mm 1 mps 675 mmHg 44%
    09:00 +24°C° 0 mm 1 mps 675 mmHg 39%
    10:00 +26°C° 0.1 mm 1 mps 675 mmHg 36%
    11:00 +27°C° 0.1 mm 1 mps 675 mmHg 32%
    12:00 +28°C° 0.1 mm 1 mps 675 mmHg 29%
    13:00 +28°C° 0.1 mm 1 mps 675 mmHg 28%
    14:00 +29°C° 0.1 mm 1 mps 675 mmHg 27%
    15:00 +29°C° 0.1 mm 1 mps 675 mmHg 26%
    16:00 +28°C° 0.1 mm 2 mps 674 mmHg 32%
    17:00 +27°C° 0.1 mm 3 mps 674 mmHg 38%
    18:00 +26°C° 0.1 mm 4 mps 674 mmHg 44%
    19:00 +23°C° 0.1 mm 4 mps 674 mmHg 48%
    20:00 +21°C° 0.1 mm 3 mps 674 mmHg 51%
    21:00 +19°C° 0.1 mm 2 mps 674 mmHg 55%
    22:00 +18°C° 0 mm 2 mps 674 mmHg 57%
    23:00 +17°C° 0 mm 2 mps 674 mmHg 59%

    7 June, Sunday

    Time Temperature Precipitation Wind Pressure Humidity
    00:00 +17°C° 0 mm 2 mps 674 mmHg 62%
    01:00 +16°C° 0 mm 2 mps 674 mmHg 63%
    02:00 +16°C° 0 mm 2 mps 674 mmHg 64%
    03:00 +16°C° 0 mm 1 mps 674 mmHg 65%
    04:00 +16°C° 0 mm 1 mps 674 mmHg 63%
    05:00 +18°C° 0 mm 1 mps 674 mmHg 62%
    06:00 +19°C° 0 mm 1 mps 674 mmHg 61%
    07:00 +21°C° 0.1 mm 1 mps 675 mmHg 57%
    08:00 +22°C° 0.1 mm 1 mps 675 mmHg 53%
    09:00 +24°C° 0.1 mm 1 mps 675 mmHg 49%
    10:00 +25°C° 0.3 mm 1 mps 675 mmHg 46%
    11:00 +26°C° 0.3 mm 1 mps 675 mmHg 43%
    12:00 +27°C° 0.3 mm 1 mps 675 mmHg 40%
    13:00 +28°C° 0.3 mm 1 mps 675 mmHg 39%
    14:00 +28°C° 0.3 mm 2 mps 674 mmHg 38%
    15:00 +28°C° 0.3 mm 2 mps 674 mmHg 37%
    16:00 +28°C° 0.1 mm 3 mps 674 mmHg 40%
    17:00 +27°C° 0.1 mm 3 mps 674 mmHg 44%
    18:00 +26°C° 0.1 mm 4 mps 674 mmHg 47%
    19:00 +24°C° 0 mm 3 mps 674 mmHg 52%
    20:00 +21°C° 0 mm 3 mps 674 mmHg 56%
    21:00 +19°C° 0 mm 3 mps 673 mmHg 60%
    22:00 +19°C° 0 mm 2 mps 673 mmHg 62%
    23:00 +18°C° 0 mm 2 mps 673 mmHg 64%

    8 June, Monday

    Time Temperature Precipitation Wind Pressure Humidity
    00:00 +18°C° 0 mm 1 mps 673 mmHg 66%
    01:00 +18°C° 0 mm 1 mps 673 mmHg 66%
    02:00 +16°C° 0 mm 1 mps 672 mmHg 67%
    03:00 +16°C° 0 mm 1 mps 672 mmHg 68%
    04:00 +18°C° 0 mm 1 mps 672 mmHg 66%
    05:00 +19°C° 0 mm 1 mps 673 mmHg 64%
    06:00 +20°C° 0 mm 1 mps 673 mmHg 62%
    07:00 +21°C° 0 mm 1 mps 673 mmHg 57%
    08:00 +23°C° 0 mm 1 mps 673 mmHg 52%
    09:00 +24°C° 0 mm 2 mps 673 mmHg 47%
    10:00 +25°C° 0 mm 2 mps 673 mmHg 44%
    11:00 +27°C° 0 mm 2 mps 673 mmHg 41%
    12:00 +28°C° 0 mm 2 mps 673 mmHg 39%
    13:00 +28°C° 0.1 mm 1 mps 673 mmHg 36%
    14:00 +29°C° 0.1 mm 1 mps 673 mmHg 34%
    15:00 +29°C° 0.1 mm 1 mps 672 mmHg 31%
    16:00 +29°C° 0.1 mm 1 mps 672 mmHg 33%
    17:00 +29°C° 0.1 mm 1 mps 672 mmHg 35%
    18:00 +29°C° 0.1 mm 1 mps 672 mmHg 37%
    19:00 +26°C° 0.1 mm 1 mps 672 mmHg 42%
    20:00 +24°C° 0.1 mm 2 mps 671 mmHg 48%
    21:00 +21°C° 0.1 mm 2 mps 671 mmHg 53%
    22:00 +20°C° 0 mm 2 mps 671 mmHg 54%
    23:00 +20°C° 0 mm 2 mps 671 mmHg 56%
    Show more